World > North America > United States > Pennsylvania

Hourly Brickerville, PA Regional Weather

Feedback E-mail the Weather

Quick WX

Brickerville, PA Weather Maps

°F °C°F °C
Brickerville Weather Map
UTC Time: 7/4/2022, 15:53
Your Time:

Brickerville, PA Regional Weather

Expires:202207041600;;671311
ASUS41 KPHI 041514
RWRPHI

REGIONAL WEATHER ROUNDUP
NATIONAL WEATHER SERVICE MOUNT HOLLY NJ
1100 AM EDT MON JUL 04 2022

NOTE:  "FAIR" INDICATES FEW OR NO CLOUDS BELOW 12,000 FEET WITH NO
SIGNIFICANT WEATHER AND/OR OBSTRUCTIONS TO VISIBILITY.

 * = STATION DOES NOT REPORT PRECIPITATION (E.G. RAIN, SNOW, ETC.) 
        OR FOG.


PAZ043-044-047-054-055-060>062-066>071-041600-
EASTERN PENNSYLVANIA
  
CITY           SKY/WX    TMP DP  RH WIND       PRES   REMARKS
PHILADELPHIA   MOSUNNY   83  51  33 N9        30.19R                  
NORTH PHILA    SUNNY     80  50  34 N3        30.21R                  
BLUE BELL*     SUNNY     80  53  38 N5        30.21R                  
DOYLESTOWN     SUNNY     78  50  37 CALM      30.20R                  
QUAKERTOWN*    SUNNY     79  48  34 N7        30.21F                  
PERKASIE*      FAIR      77  52  41 E5        30.22S                  
POTTSTOWN      SUNNY     77  50  38 CALM      30.22R                  
LANCASTER      SUNNY     79  50  36 CALM      30.21S                  
COATESVILLE    SUNNY     77  50  38 VRB3      30.23S                  
READING        SUNNY     80  50  34 S3        30.20S                  
ALLENTOWN      SUNNY     77  49  37 NE5       30.20S                  
QN CITY/ALNTWN FAIR      77  48  36 CALM      30.22S                  
MOUNT POCONO   SUNNY     73  48  41 NW8       30.23F                  
HAZLETON       SUNNY     73  48  40 NW6       30.27S                  
LEHIGHTON      FAIR      75  45  33 CALM      30.22F                  
WILKES BARRE   SUNNY     74  49  41 CALM      30.21F                  

$$

SKY/WX - Weather  TMP - Temperature  DP - Dew Point  RH - Humidity
WIND - Wind Direction/Speed PRES - Barometric Pressure VSB - Visibility
WCI - Wind Chill Index E13G22 Wind - East Wind 13 mph/Gusts of 22 mph

Trending Headlines

Brickerville Radar Loop



Brickerville Quick Facts


National Two Day Weather Forecast


E-mail the Brickerville Weather Forecast

Voice your opinion or tell us about page issues...